Flag for Poland Weather past 2 weeks in Szczecin, Poland

Now
41 °F

Fog.


Feels Like: 36 °F
Forecast: 45 / 55 °F
Wind: 7 mph from South

Location: Szczecin Airport

Current Time: Oct 25, 2014 at 11:39:09 PM

Latest Report: Oct 25, 2014 at 11:00 PM


Visibility: 2 mi

Pressure: 30.18 "Hg

Humidity: 93%

Dew point: 39 °F

Location of SzczecinLocation

Historic Weather in Szczecin — Graph

°F

Szczecin temperature yesterday

Maximum temperature yesterday: 45 °F (at 12:00 PM)
Minimum temperature yesterday: 39 °F (at 8:00 PM)
Average temperature yesterday: 42 °F

Past Weeks' High & Low Weather Summary

 TemperatureHumidityPressure
High68 °F (Oct 19, 3:30 PM)100% (Oct 11, 8:30 AM)30.30 "Hg (Oct 11, 8:30 AM)
Low34 °F (Oct 25, 7:00 AM)46% (Oct 24, 5:30 PM)29.45 "Hg (Oct 21, 11:30 PM)
Average53 °F93%29.90 "Hg
* Reported Oct 10 10:00 PM — Oct 25 10:00 PM, Szczecin, Weather by CustomWeather, © 2014

Note: Actual official high and low records may vary slightly from our data, if they occured in-between our weather recording intervals... More about our weather records

Advertising

Szczecin weather history for previous 24 hours

 ConditionsComfort  
Time TempWeatherWind HumidityBarometerVisibility
10:00 PM
Oct 25
41 °FFog.8 mph93%30.18 "Hg2 mi
9:30 PM41 °FFog.9 mph93%30.18 "Hg2 mi
9:00 PM41 °FFog.10 mph93%30.18 "Hg2 mi
8:30 PM41 °FFog.10 mph93%30.18 "Hg2 mi
8:00 PM41 °FFog.9 mph93%30.18 "Hg2 mi
7:30 PM41 °FFog.9 mph93%30.15 "Hg2 mi
7:00 PM41 °FFog.10 mph87%30.15 "Hg3 mi
6:30 PM41 °FFog.10 mph87%30.15 "Hg3 mi
6:00 PM41 °FFog.9 mph87%30.15 "Hg3 mi
5:30 PM41 °FFog.10 mph87%30.15 "Hg3 mi
5:00 PM41 °FFog.10 mph87%30.15 "Hg3 mi
4:30 PM41 °FFog.14 mph87%30.15 "Hg3 mi
4:00 PM41 °FFog.13 mph87%30.15 "Hg3 mi
3:30 PM39 °FFog.10 mph93%30.15 "Hg3 mi
3:00 PM39 °FFog.13 mph93%30.15 "Hg3 mi
2:30 PM39 °FFog.9 mph93%30.15 "Hg3 mi
2:00 PM39 °FPartly sunny.13 mph87%30.15 "Hg4 mi
1:30 PM39 °FFog.15 mph87%30.15 "Hg3 mi
1:00 PM39 °FFog.12 mph87%30.15 "Hg3 mi
12:30 PM37 °FPartly sunny.12 mph93%30.15 "Hg4 mi
12:00 PM37 °FPartly sunny.12 mph87%30.15 "Hg4 mi
11:30 AM37 °FPartly sunny.12 mph87%30.15 "Hg4 mi
11:00 AM36 °FPartly sunny.13 mph93%30.15 "Hg4 mi
10:30 AM36 °FPartly sunny.14 mph93%30.15 "Hg4 mi
10:00 AM36 °FPartly sunny.10 mph93%30.15 "Hg4 mi
9:30 AM36 °FPartly sunny.13 mph93%30.15 "Hg4 mi
9:00 AM34 °FScattered clouds.10 mph93%30.15 "Hg4 mi
8:30 AM34 °FPassing clouds.10 mph93%30.18 "Hg4 mi
8:00 AM34 °FPassing clouds.14 mph93%30.15 "Hg4 mi
7:30 AM34 °FFog.13 mph93%30.15 "Hg3 mi
7:00 AM34 °FFog.14 mph100%30.15 "Hg3 mi
6:30 AM36 °FFog.10 mph93%30.18 "Hg3 mi
6:00 AM36 °FFog.9 mph93%30.18 "Hg3 mi
5:30 AM36 °FFog.9 mph93%30.18 "Hg2 mi
5:00 AM39 °FFog.10 mph93%30.18 "Hg2 mi
4:30 AM39 °FFog.12 mph93%30.18 "Hg2 mi
4:00 AM41 °FFog.12 mph93%30.18 "Hg2 mi
3:30 AM41 °FFog.10 mph93%30.18 "Hg2 mi
3:00 AM41 °FFog.12 mph93%30.18 "Hg2 mi
2:30 AM41 °FFog.14 mph93%30.21 "Hg2 mi
2:00 AM41 °FFog.15 mph93%30.21 "Hg2 mi
1:30 AM41 °FFog.14 mph93%30.21 "Hg2 mi
1:00 AM41 °FFog.13 mph93%30.21 "Hg2 mi
12:30 AM41 °FFog.14 mph93%30.21 "Hg2 mi
12:00 AM41 °FFog.12 mph93%30.24 "Hg2 mi
11:30 PM
Oct 24
41 °FFog.10 mph93%30.24 "Hg2 mi
11:00 PM41 °FFog.10 mph93%30.24 "Hg2 mi
Weather by CustomWeather, © 2014

See weather overviewHow to use our weather pages